* Astronomy

Members Login
Username 
 
Password 
    Remember Me  
Post Info TOPIC: Asteroid 2011 BU59


L

Posts: 131433
Date:
Asteroid 2011 BU59
Permalink  
 


Orbital elements:
2011 BU59 Earth MOID = 0.0019 AU
Epoch 2011 Feb. 8.0 TT = JDT 2455600.5 MPC
M 55.47073 (2000.0) P Q
n 0.70306668 Peri. 279.50221 +0.80468396 -0.59122680
a 1.2525788 Node 116.76120 +0.56574068 +0.73591307
e 0.3919922 Incl. 3.47829 +0.18005892 +0.32997398
P 1.40 H 25.9 G 0.15 U 6

MPEC 2011 - D05


__________________
Page 1 of 1  sorted by
 
Quick Reply

Please log in to post quick replies.



Create your own FREE Forum
Report Abuse
Powered by ActiveBoard